Key West, FL

3:11 PM EST on January 23, 2017 (GMT -0500)
Key West Botanical Garden | | Change Station
Active Advisory: Small Craft Advisory

Elev 10 ft 24.57 °N, 81.75 °W | Updated 4 minutes ago

Scattered Clouds
Scattered Clouds
74.8 °F
Feels Like 77 °F
N
9.2
Wind Variable Wind from NW
Gusts 15.0 mph

Today
High -- | Low -- °F
--% Chance of Precip.
Yesterday
High -- | Low -- °F
Precip. -- in
Pressure 29.70 in
Visibility 10.0 miles
Clouds Few 3500 ft
Scattered Clouds 4200 ft
Heat Index 77 °F
Dew Point 60 °F
Humidity 60%
Rainfall 0.70 in
Snow Depth Not available.
7:11 AM 6:06 PM
Waning Crescent, 16% visible
METAR KNQX 231953Z 28025G35KT 10SM FEW035 SCT042 24/16 A2971 RMK AO2 PK WND 28035/1923 SLP058 T02440156 $
Pressure 29.70 in
Visibility 10.0 miles
Clouds Few 3500 ft
Scattered Clouds 4200 ft
Heat Index 77 °F
Dew Point 60 °F
Humidity 60%
Rainfall 0.70 in
Snow Depth Not available.
7:11 AM 6:06 PM
Waning Crescent, 16% visible
METAR KNQX 231953Z 28025G35KT 10SM FEW035 SCT042 24/16 A2971 RMK AO2 PK WND 28035/1923 SLP058 T02440156 $

Get Your Daily Forecast Email!

Thanks for signing up!

Be on the lookout for a verification email in your inbox.

You'll start receiving the daily forecast at 8 AM.

×

10-Day Weather Forecast

Almanac

Astronomy

Jan. 23, 2017 Rise Set
Actual Time
Civil Twilight
Nautical Twilight
Astronomical Twilight
Moon
Length of Visible Light
Length of Day
Tomorrow will be .
, % of the Moon is Illuminated

Today's Extremes

State Highs State Lows

Community

WunderPhotos

Upload Photos

1,962,540 photos uploaded!

WunderBlog® & News

Nearby

Air Quality

  Air Quality AQ Index Pollutant
Not available.

Snow Depth

Station Depth Elevation

Earthquake Activity

City Distance Mag. Time & Date
Minimum magnitude displayed is 2.5.

Coastal Water Temperatures

Place Temperature

Stations

Nearby Weather Stations

Station Location Temp. Windchill Dew Point Humidity Wind Precip. Elev Updated Type
                   

Watches & Warnings

Small Craft Advisory
Issued: 10:08 AM EST Jan. 23, 2017 – National Weather Service

... Small Craft Advisory remains in effect...

* winds... west to northwest winds at 25 to 30 knots with
occasional gusts of 35 to 40 knots.

* Waves/seas... seas will be as high as 14 feet in portions of
the Gulf Stream and the outer waters of Mainland Monroe.

Precautionary/preparedness actions...

A Small Craft Advisory means that wind speeds of 20 to 33 knots...
or seas of 7 feet or greater... are expected to produce hazardous
conditions for small craft. Inexperienced boaters... especially
those with smaller vessels... should avoid operating in these
conditions.



Apa